Overview Statistics Trail Chart Weather Telemetry Raw packets
 

This is the latest recevied weather packets stored in our database for station/object CT2IRJ-11. If no packets are shown the sender has not sent any weather packets the latest 10 day(s).

<< 1 2 3 4 >>
Time Temp. Humidity Pressure Rain* Wind** Luminosity Snow
1788622505 38.33° C 35% 1016.6 hPa 0 mm - 412 W/m² -
1788622205 38.33° C 36% 1016.6 hPa 0 mm - 431 W/m² -
1788621906 38.33° C 35% 1016.6 hPa 0 mm - 417 W/m² -
1788621605 38.89° C 35% 1016.6 hPa 0 mm - 440 W/m² -
1788621306 38.33° C 35% 1016.6 hPa 0 mm - 437 W/m² -
1788621005 38.89° C 35% 1016.6 hPa 0 mm - 442 W/m² -
1788620712 39.44° C 33% 1016.6 hPa 0 mm - 484 W/m² -
1788620407 38.89° C 34% 1016.6 hPa 0 mm - 500 W/m² -
1788620105 38.89° C 33% 1016.6 hPa 0 mm - 485 W/m² -
1788619806 40° C 34% 1016.6 hPa 0 mm - 433 W/m² -
1788619505 39.44° C 33% 1016.9 hPa 0 mm - 467 W/m² -
1788619207 39.44° C 34% 1016.6 hPa 0 mm - 518 W/m² -
1788618905 38.89° C 33% 1016.6 hPa 0 mm - 553 W/m² -
1788618605 40° C 31% 1016.6 hPa 0 mm - 552 W/m² -
1788618305 38.89° C 31% 1016.9 hPa 0 mm - 558 W/m² -
1788618005 38.89° C 31% 1016.9 hPa 0 mm - 569 W/m² -
1788617706 40.56° C 30% 1016.9 hPa 0 mm - 578 W/m² -
1788617406 38.89° C 31% 1016.6 hPa 0 mm - 568 W/m² -
1788617105 38.89° C 31% 1016.9 hPa 0 mm - 583 W/m² -
1788616805 38.89° C 31% 1017.3 hPa 0 mm - 588 W/m² -
1788616505 38.33° C 32% 1017.3 hPa 0 mm - 588 W/m² -
1788616207 38.89° C 31% 1017.6 hPa 0 mm - 589 W/m² -
1788615907 38.89° C 31% 1017.3 hPa 0 mm - 578 W/m² -
1788615605 38.33° C 32% 1017.3 hPa 0 mm - 577 W/m² -
1788615305 37.78° C 32% 1017.6 hPa 0 mm - 597 W/m² -

* Rain latest hour (hover to see other rain measurements)
** Current wind speed in m/s (hover to see current wind gust speed)